DW4174 Weather Reports


time (UTC)temp
C
wind
direction
speed
KPH
gust
KPH
rain 1hr
cm
rain 24hr
cm
rain mn
cm
humidity
%
barometer
mb
20260505025105 23 274 9.7 14.5 0.00 0.00 0.00 40 1009.3
20260505024205 23 258 6.4 16.1 0.00 0.00 0.00 40 1009.4
20260505023305 24 270 8.0 11.3 0.00 0.00 0.00 39 1009.2
20260505022405 24 271 6.4 14.5 0.00 0.00 0.00 38 1009.3
20260505021506 24 250 6.4 11.3 0.00 0.00 0.00 37 1009.1
20260505020605 24 267 6.4 11.3 0.00 0.00 0.00 37 1009.2
20260505015705 25 272 6.4 11.3 0.00 0.00 0.00 37 1009.2
20260505014805 25 276 6.4 11.3 0.00 0.00 0.00 37 1009.1
20260505013906 25 304 4.8 9.7 0.00 0.00 0.00 37 1008.8
20260505013007 25 299 4.8 11.3 0.00 0.00 0.00 36 1008.7
20260505012105 25 274 4.8 12.9 0.00 0.00 0.00 36 1008.9
20260505011205 25 284 4.8 11.3 0.00 0.00 0.00 36 1008.8
20260505005405 25 203 4.8 11.3 0.00 0.00 0.00 36 1008.9
20260505003605 25 310 3.2 4.8 0.00 0.00 0.00 37 1009.0
20260505001806 25 299 3.2 12.9 0.00 0.00 0.00 37 1009.1
20260505000905 25 292 6.4 11.3 0.00 0.00 0.00 36 1009.1
20260504235105 25 249 6.4 14.5 0.00 0.00 0.00 37 1009.5
20260504234205 26 267 3.2 12.9 0.00 0.00 0.00 36 1009.5
20260504233305 25 233 3.2 9.7 0.00 0.00 0.00 37 1009.4
20260504231505 25 294 4.8 12.9 0.00 0.00 0.00 37 1009.2
20260504230605 25 350 4.8 8.0 0.00 0.00 0.00 37 1009.4
20260504225705 25 350 4.8 9.7 0.00 0.00 0.00 37 1009.4
20260504223905 25 354 8.0 16.1 0.00 0.00 0.00 37 1009.6
20260504223007 25 296 9.7 19.3 0.00 0.00 0.00 37 1009.9
20260504222105 26 302 11.3 19.3 0.00 0.00 0.00 36 1009.8
20260504221205 25 321 12.9 20.9 0.00 0.00 0.00 36 1010.0
20260504220304 26 311 9.7 22.5 0.00 0.00 0.00 36 1010.0
20260504215405 26 298 6.4 22.5 0.00 0.00 0.00 36 1009.9
20260504214505 25 259 6.4 11.3 0.00 0.00 0.00 37 1010.2
20260504212705 25 271 11.3 17.7 0.00 0.00 0.00 37 1010.6
20260504210006 25 307 12.9 22.5 0.00 0.00 0.00 38 1010.8
20260504205104 26 299 12.9 24.1 0.00 0.00 0.00 37 1010.9
20260504204204 26 271 11.3 24.1 0.00 0.00 0.00 36 1011.0
20260504203305 27 267 4.8 19.3 0.00 0.00 0.00 34 1010.8
20260504202404 26 194 6.4 14.5 0.00 0.00 0.00 36 1010.8
20260504201505 26 208 4.8 16.1 0.00 0.00 0.00 37 1010.7
20260504200604 26 195 8.0 11.3 0.00 0.00 0.00 36 1010.8
20260504195706 25 293 4.8 16.1 0.00 0.00 0.00 38 1010.9
20260504194804 25 306 6.4 12.9 0.00 0.00 0.00 39 1010.8
20260504193904 25 278 12.9 19.3 0.00 0.00 0.00 39 1010.8
20260504193005 25 296 12.9 20.9 0.00 0.00 0.00 39 1011.3
20260504192105 25 294 12.9 24.1 0.00 0.00 0.00 40 1011.3
20260504191204 26 276 9.7 24.1 0.00 0.00 0.00 39 1011.2
20260504185405 25 316 9.7 16.1 0.00 0.00 0.00 40 1010.8
20260504184504 25 304 9.7 17.7 0.00 0.00 0.00 40 1010.8
20260504183604 25 313 11.3 19.3 0.00 0.00 0.00 40 1010.9
20260504182704 25 305 14.5 22.5 0.00 0.00 0.00 41 1011.3
20260504181804 25 293 12.9 22.5 0.00 0.00 0.00 42 1011.7
20260504180904 25 293 11.3 20.9 0.00 0.00 0.00 42 1011.7
20260504175104 24 292 6.4 11.3 0.00 0.00 0.00 44 1010.9
20260504173304 23 281 8.0 14.5 0.00 0.00 0.00 43 1010.8
20260504172404 24 290 9.7 16.1 0.00 0.00 0.00 42 1010.8
20260504171504 24 273 6.4 20.9 0.00 0.00 0.00 41 1011.1
20260504170604 25 241 6.4 17.7 0.00 0.00 0.00 33 1011.1
20260504160304 24 192 9.7 17.7 0.00 0.00 0.00 33 1011.3